time_stamp(utc),avg(mph),gust(mph),direction(deg),12m_air_temp(f),sonic_u(cm/s),sonic_v(cm/s),sonic_w(cm/s),pressure,2m_air_temp(f),pyranometer(W/m^2)
"2020-03-02 00:02:45+00",10.4,11.4,,39.8,946,-2463,1353,1021.6,37.6,0
"2020-03-02 00:07:45+00",11.7,12.7,,40.1,1464,-3447,1910,1021.6,37.5,0
"2020-03-02 00:12:45+00",10.9,11.9,,40.6,1120,-2795,1559,1021.58,37.8,0
"2020-03-02 00:17:45+00",10.1,11.1,,40.3,806,-2257,1198,1021.67,37.9,0
"2020-03-02 00:22:45+00",9.9,10.9,,39.9,568,-1872,966,1021.64,37.8,0
"2020-03-02 00:27:45+00",9.5,10.5,,39.8,642,-1964,1032,1021.7,37.6,0
"2020-03-02 00:32:45+00",8.5,8.5,,39.7,281,-1281,647,1021.66,37.4,0
"2020-03-02 00:37:45+00",8.6,9.6,,39.7,237,-1212,615,1021.67,37.1,0
"2020-03-02 00:42:45+00",11.6,12.6,,39.3,841,-2400,1281,1021.67,36.9,0
"2020-03-02 00:47:45+00",11.1,12.1,,39.6,660,-2026,1095,1021.65,36.7,0
"2020-03-02 00:52:45+00",9.7,10.7,,39.3,476,-1604,871,1021.63,36.7,0
"2020-03-02 00:57:45+00",10.2,11.2,,39,407,-1601,832,1021.58,36.6,0
"2020-03-02 01:02:45+00",10.8,11.8,,39,502,-1735,937,1021.59,36.5,0
"2020-03-02 01:07:45+00",10.6,11.6,,39.7,755,-2154,1175,1021.63,36.5,0
"2020-03-02 01:12:45+00",9.6,10.6,,39.6,543,-1717,929,1021.69,36.6,0
"2020-03-02 01:17:45+00",8.9,9.9,,39.4,215,-1163,576,1021.71,36.5,0
"2020-03-02 01:22:45+00",9.6,10.6,,39,36,-858,397,1021.8,36.3,0
"2020-03-02 01:27:45+00",8.6,9.6,,38.8,134,-1009,501,1021.78,36.5,0
"2020-03-02 01:32:45+00",9.7,10.7,,38.8,159,-1061,552,1021.83,36.4,0
"2020-03-02 01:37:45+00",9.7,10.7,,38.8,465,-1722,882,1021.88,36.3,0
"2020-03-02 01:42:45+00",11.0,12.0,,38.6,488,-1801,904,1021.88,36.2,0
"2020-03-02 01:47:45+00",10.8,11.8,,39,879,-2510,1325,1021.79,36.5,0
"2020-03-02 01:52:45+00",11.2,12.2,,39.5,816,-2319,1245,1021.93,36.6,0
"2020-03-02 01:57:45+00",11.2,12.2,,39.5,416,-1648,805,1022.06,36.7,0
"2020-03-02 02:02:45+00",8.0,9.0,,39.2,121,-917,447,1022.06,36.8,0
"2020-03-02 02:07:45+00",10.1,11.1,,38.9,12,-842,362,1022.13,36.7,0
"2020-03-02 02:12:45+00",9.7,10.7,,38.8,36,-853,385,1022.32,36.7,0
"2020-03-02 02:17:45+00",10.3,11.3,,38.8,132,-1073,491,1022.27,36.7,0
"2020-03-02 02:22:45+00",9.3,10.3,,38.9,3,-765,319,1022.15,36.6,0
"2020-03-02 02:27:45+00",9.3,10.3,,38.8,4,-800,311,1022.12,36.6,0
"2020-03-02 02:32:45+00",8.9,9.9,,38.8,-35,-664,283,1022.12,36.6,0
"2020-03-02 02:37:45+00",11.0,12.0,,38.7,171,-1226,549,1022.2,36.5,0
"2020-03-02 02:42:45+00",9.7,10.7,,38.7,45,-906,373,1022.15,36.7,0
"2020-03-02 02:47:45+00",9.5,10.5,,38.7,26,-864,339,1022.11,36.9,0
"2020-03-02 02:52:45+00",9.2,10.2,,38.7,-67,-672,220,1022.08,36.8,0
"2020-03-02 02:57:45+00",8.3,9.3,,38.6,-74,-588,188,1022.11,36.7,0
"2020-03-02 03:02:45+00",8.6,9.6,,38.6,-63,-579,167,1022.1,36.5,0
"2020-03-02 03:07:45+00",8.9,9.9,,38.7,-54,-604,171,1022.1,36.2,0
"2020-03-02 03:12:45+00",9.0,10.0,,38.7,-63,-610,177,1022.08,36,0
"2020-03-02 03:17:45+00",7.7,8.7,,38.7,-107,-423,94,1022.06,35.9,0
"2020-03-02 03:22:45+00",7.6,7.6,,38.8,-95,-402,74,1022.05,35.9,0
"2020-03-02 03:27:45+00",8.9,8.9,,39,-114,-449,74,1022.09,35.7,0
"2020-03-02 03:32:45+00",8.5,8.5,,39.1,-90,-472,97,1022.1,35.7,0
"2020-03-02 03:37:45+00",9.0,10.0,,39.1,-81,-546,130,1022.08,35.6,0
"2020-03-02 03:42:45+00",9.2,10.2,,38.9,-42,-612,159,1021.98,35.5,0
"2020-03-02 03:47:45+00",9.3,10.3,,39.1,-58,-590,151,1021.78,35.7,0
"2020-03-02 03:52:45+00",8.7,9.7,,39,-53,-520,112,1021.81,35.8,0
"2020-03-02 03:57:45+00",9.4,10.4,,38.8,-46,-597,154,1021.8,35.8,0
"2020-03-02 04:02:45+00",9.0,9.0,,38.9,-34,-553,127,1021.78,35.6,0
"2020-03-02 04:07:45+00",8.9,9.9,,39,-27,-566,138,1021.8,35.6,0
"2020-03-02 04:12:45+00",9.4,10.4,,39.3,-122,-447,56,1021.76,35.7,0
"2020-03-02 04:17:45+00",8.8,9.8,,39.4,-244,-174,-89,1021.83,36,0
"2020-03-02 04:22:45+00",8.3,9.3,,39.3,-237,-155,-94,1021.69,36.2,0
"2020-03-02 04:27:45+00",8.9,9.9,,39.4,-170,-359,20,1021.69,36.3,0
"2020-03-02 04:32:45+00",9.0,10.0,,39.6,-233,-211,-77,1021.63,36.4,0
"2020-03-02 04:37:45+00",9.2,10.2,,39.7,-310,-78,-153,1021.61,36.5,0
"2020-03-02 04:42:45+00",10.3,11.3,,39.7,-283,-240,-82,1021.59,36.6,0
"2020-03-02 04:47:45+00",10.0,11.0,,39.4,-341,-117,-146,1021.61,36.7,0
"2020-03-02 04:52:45+00",10.1,11.1,,39.2,-202,-358,-14,1021.52,36.9,0
"2020-03-02 04:57:45+00",9.5,11.5,,39.1,-117,-459,57,1021.52,37.1,0
"2020-03-02 05:02:45+00",10.1,11.1,,39.2,-180,-365,-13,1021.55,37.3,0
"2020-03-02 05:07:45+00",10.2,12.2,,39.6,-140,-480,56,1021.44,37.6,0
"2020-03-02 05:12:45+00",10.1,12.1,,39.4,-208,-337,-38,1021.39,37.6,0
"2020-03-02 05:17:45+00",9.6,10.6,,39.1,-188,-317,-39,1021.27,37.5,0
"2020-03-02 05:22:45+00",9.2,10.2,,38.9,-245,-171,-107,1021.34,37.3,0
"2020-03-02 05:27:45+00",9.5,11.5,,38.9,-177,-311,-42,1021.33,37.1,0
"2020-03-02 05:32:45+00",8.9,10.9,,39,-102,-382,11,1021.22,37.1,0
"2020-03-02 05:37:45+00",8.8,9.8,,39.1,-194,-210,-86,1021.24,37.3,0
"2020-03-02 05:42:45+00",7.3,8.3,,39.1,-93,-273,-12,1021.16,37.5,0
"2020-03-02 05:47:45+00",8.1,9.1,,39.1,-141,-255,-37,1021.17,37.5,0
"2020-03-02 05:52:45+00",8.0,9.0,,39.1,-63,-339,-1,1020.95,37.6,0
"2020-03-02 05:57:45+00",7.2,10.2,,39.4,-26,-374,48,1020.94,37.9,0
"2020-03-02 06:02:45+00",8.3,10.3,,39.4,26,-520,97,1021,38,0
"2020-03-02 06:07:45+00",8.4,9.4,,39.4,51,-566,128,1021.01,37.9,0
"2020-03-02 06:12:45+00",8.4,9.4,,39.5,28,-547,118,1021.02,37.6,0
"2020-03-02 06:17:45+00",8.3,9.3,,39.7,39,-552,117,1021.07,37.5,0
"2020-03-02 06:22:45+00",9.1,10.1,,39.7,55,-643,155,1021,37.5,0
"2020-03-02 06:27:45+00",9.2,11.2,,39.5,6,-573,114,1021.05,37.3,0
"2020-03-02 06:32:45+00",9.0,11.0,,39.4,27,-591,123,1020.99,37.4,0
"2020-03-02 06:37:45+00",9.1,10.1,,39.6,85,-684,169,1020.97,37.7,0
"2020-03-02 06:42:45+00",9.2,11.2,,39.7,33,-597,137,1020.88,38.1,0
"2020-03-02 06:47:45+00",8.3,11.3,,39.9,74,-579,149,1020.69,38.4,0
"2020-03-02 06:52:45+00",9.2,11.2,,40.2,32,-561,105,1020.67,38.9,0
"2020-03-02 06:57:45+00",10.1,12.1,,40.3,142,-802,211,1020.62,39.1,0
"2020-03-02 07:02:45+00",11.0,13.0,,40.4,141,-879,226,1020.58,39.3,0
"2020-03-02 07:07:45+00",10.0,12.0,,40.3,138,-805,219,1020.53,39.2,0
"2020-03-02 07:12:45+00",9.6,11.6,,40.4,101,-758,199,1020.46,39.3,0
"2020-03-02 07:17:45+00",9.7,11.7,,40.4,75,-675,154,1020.37,39.3,0
"2020-03-02 07:22:45+00",10.4,12.4,,40.5,138,-803,207,1020.27,39.5,0
"2020-03-02 07:27:45+00",9.5,11.5,,40.6,55,-643,137,1020.26,39.6,0
"2020-03-02 07:32:45+00",9.1,12.1,,40.7,83,-650,148,1020.16,39.8,0
"2020-03-02 07:37:45+00",9.9,12.9,,40.8,122,-691,142,1020.07,39.8,0
"2020-03-02 07:42:45+00",10.0,12.0,,40.8,88,-661,132,1020.05,39.9,0
"2020-03-02 07:47:45+00",10.4,12.4,,40.9,63,-672,142,1019.98,40,0
"2020-03-02 07:52:45+00",10.7,13.7,,41,121,-738,167,1019.94,40.2,0
"2020-03-02 07:57:45+00",10.6,12.6,,41,82,-654,109,1019.93,40.1,0
"2020-03-02 08:02:45+00",9.9,12.9,,41,23,-582,79,1019.92,40.2,0
"2020-03-02 08:07:45+00",10.0,12.0,,41,-77,-398,-14,1019.8,40.2,0
"2020-03-02 08:12:45+00",10.2,12.2,,41,-144,-296,-86,1019.81,40.2,0
"2020-03-02 08:17:45+00",8.9,10.9,,41,-111,-241,-81,1019.72,40.1,0
"2020-03-02 08:22:45+00",9.8,11.8,,40.9,-157,-173,-140,1019.56,40,0
"2020-03-02 08:27:45+00",9.8,13.8,,40.9,-172,-136,-159,1019.51,40,0
"2020-03-02 08:32:45+00",11.0,14.0,,41.1,-134,-276,-112,1019.56,40.2,0
"2020-03-02 08:37:45+00",11.0,13.0,,41.2,13,-571,55,1019.52,40.3,0
"2020-03-02 08:42:45+00",10.4,14.4,,41.3,8,-491,51,1019.54,40.3,0
"2020-03-02 08:47:45+00",10.9,13.9,,41.4,99,-728,157,1019.57,40.6,0
"2020-03-02 08:52:45+00",11.5,14.5,,41.4,122,-826,195,1019.58,40.6,0
"2020-03-02 08:57:45+00",11.2,14.2,,41.5,105,-752,144,1019.52,40.7,0
"2020-03-02 09:02:45+00",11.6,15.6,,41.6,46,-681,94,1019.5,40.8,0
"2020-03-02 09:07:45+00",12.9,14.9,,41.7,123,-889,164,1019.4,40.9,0
"2020-03-02 09:12:45+00",11.8,14.8,,41.8,98,-753,136,1019.36,41,0
"2020-03-02 09:17:45+00",12.8,15.8,,41.9,197,-978,232,1019.26,41.1,0
"2020-03-02 09:22:45+00",12.3,16.3,,41.9,151,-902,194,1019.28,41.1,0
"2020-03-02 09:27:45+00",12.4,18.4,,42,224,-1025,277,1019.19,41.2,0
"2020-03-02 09:32:45+00",14.4,20.4,,42.1,263,-1168,288,1019.23,41.3,0
"2020-03-02 09:37:45+00",13.6,17.6,,42.3,372,-1400,453,1019.15,41.6,0
"2020-03-02 09:42:45+00",12.6,14.6,,42.3,358,-1310,426,1019.03,41.6,0
"2020-03-02 09:47:45+00",13.4,15.4,,42.4,453,-1515,529,1019.04,41.7,0
"2020-03-02 09:52:45+00",13.5,17.5,,42.4,441,-1501,501,1018.93,41.7,0
"2020-03-02 09:57:45+00",12.6,15.6,,42.5,441,-1471,543,1019,41.8,0
"2020-03-02 10:02:45+00",12.5,17.5,,42.5,402,-1436,508,1018.97,41.8,0
"2020-03-02 10:07:45+00",14.6,18.6,,42.6,718,-2074,857,1018.91,41.8,0
"2020-03-02 10:12:45+00",14.3,18.3,,42.7,574,-1761,663,1018.87,41.9,0
"2020-03-02 10:17:45+00",13.0,15.0,,42.6,591,-1781,705,1018.73,41.9,0
"2020-03-02 10:22:45+00",12.7,16.7,,42.5,550,-1728,691,1018.72,41.8,0
"2020-03-02 10:27:45+00",14.3,17.3,,42.5,696,-1987,788,1018.72,41.7,0
"2020-03-02 10:32:45+00",13.0,17.0,,42.3,479,-1627,611,1018.62,41.6,0
"2020-03-02 10:37:45+00",13.6,17.6,,42.4,622,-1971,801,1018.8,41.6,0
"2020-03-02 10:42:45+00",13.8,15.8,,42.4,636,-1949,781,1018.69,41.5,0
"2020-03-02 10:47:45+00",12.9,14.9,,42.3,572,-1771,704,1018.6,41.4,0
"2020-03-02 10:52:45+00",12.7,16.7,,42.3,589,-1857,759,1018.62,41.4,0
"2020-03-02 10:57:45+00",11.7,14.7,,42.1,421,-1514,590,1018.61,41.2,0
"2020-03-02 11:02:45+00",12.3,15.3,,42.1,394,-1492,558,1018.56,41.1,0
"2020-03-02 11:07:45+00",11.0,14.0,,42.2,225,-1074,376,1018.49,41.2,0
"2020-03-02 11:12:45+00",10.7,13.7,,42,215,-1000,331,1018.43,41,0
"2020-03-02 11:17:45+00",11.8,14.8,,42.1,382,-1418,539,1018.38,41,0
"2020-03-02 11:22:45+00",13.9,16.9,,42.1,886,-2417,1058,1018.37,41,0
"2020-03-02 11:27:45+00",12.8,15.8,,42.2,636,-1925,809,1018.3,41.1,0
"2020-03-02 11:32:45+00",11.8,14.8,,42.2,533,-1689,680,1018.23,41.2,0
"2020-03-02 11:37:45+00",14.7,17.7,,42.5,1000,-2707,1184,1018.24,41.5,0
"2020-03-02 11:42:45+00",12.3,16.3,,42.5,520,-1661,656,1018.17,41.5,0
"2020-03-02 11:47:45+00",12.2,15.2,,42.5,617,-1896,802,1018.09,41.6,0
"2020-03-02 11:52:45+00",13.3,15.3,,42.6,85,-1021,293,1018.04,41.7,0
"2020-03-02 11:57:45+00",13.1,15.1,,42.7,-393,-163,-185,1017.98,41.8,0
"2020-03-02 12:02:45+00",12.1,16.1,,42.9,-503,100,-292,1017.98,42,29.1
"2020-03-02 12:07:45+00",14.6,17.6,,43,-506,-115,-262,1018.17,42.2,37.2
"2020-03-02 12:12:45+00",14.0,18.0,,43.4,-183,-649,88,1018.2,42.7,44.3
"2020-03-02 12:17:45+00",13.7,17.7,,43.6,-128,-741,164,1018.26,43.1,63.4
"2020-03-02 12:22:45+00",15.2,18.2,,43.8,49,-1168,352,1018.31,43.5,66.7
"2020-03-02 12:27:45+00",16.7,17.7,,43.9,47,-1378,423,1018.23,43.7,78.7
"2020-03-02 12:32:45+00",16.8,18.8,,44.1,113,-1440,476,1018.22,44,110.9
"2020-03-02 12:37:45+00",16.8,18.8,,44.2,208,-1565,562,1018.19,44.2,105
"2020-03-02 12:42:45+00",16.6,18.6,,44.3,597,-2275,947,1018.23,44.3,117.8
"2020-03-02 12:47:45+00",15.2,19.2,,44.7,319,-1683,663,1018.24,44.7,144.6
"2020-03-02 12:52:45+00",18.8,20.8,,45,814,-2706,1186,1018.24,45.1,113.2
"2020-03-02 12:57:45+00",18.2,22.2,,45.2,1332,-3809,1809,1018.22,45.3,126.5
"2020-03-02 13:02:45+00",18.0,21.0,,45.3,802,-2743,1258,1018.21,45.5,124.6
"2020-03-02 13:07:45+00",17.9,20.9,,45.3,253,-1782,768,1018.32,45.5,112.3
"2020-03-02 13:12:45+00",16.1,18.1,,45.2,1406,-3810,1825,1018.35,45.5,116
"2020-03-02 13:17:45+00",16.8,19.8,,45.2,969,-2954,1427,1018.31,45.3,101.7
"2020-03-02 13:22:45+00",17.4,21.4,,45.2,1382,-3620,1783,1018.19,45.3,146.7
"2020-03-02 13:57:45+00",16.2,20.2,,46.2,1769,-4181,2102,1017.85,47,199.8
"2020-03-02 14:02:45+00",17.1,19.1,,45.9,1483,-3684,1826,1017.82,47,238.2
